[[{"header":{"parameterUnit":"m.s-1","parameterCategory":1,"la1":30.2991,"la2":30.254,"lo1":-89.0895,"lo2":-89.0444,"dy":0.0017,"dx":0.0017,"nx":28,"ny":28,"refTime":"2023-09-08T09:00:00:Z","depth":0,"parameterNumber":2,"parameterNumberName":"U-component_of_WINDS"},"data":[0,0,0,0,0,0,0,0,0,0,0,0,0,0,0,0,0,0,0,0,0,0,0,0,0,0,0,0,0,0,0,0,0,0,0,0,0,0,0,0,0,0,0,0,0,0,0,0,0,0,0,0,0,0,0,0,0,0,0.3101,0.3102,0,0.3182,0.3183,0.3183,0.3196,0.3196,0.3195,0.3194,0.3283,0.3286,0.3289,0,0,0,0,0,0,0,0,0,0,0,0,0,0.2963,0.2966,0.3101,0.3102,0.3103,0.3181,0.3183,0.3184,0.3197,0.3196,0.3195,0.3194,0.3282,0.3286,0.3289,0,0,0,0,0,0,0,0,0,0,0,0,0,0.3031,0.2966,0.3101,0.3119,0.3121,0.3181,0.3183,0.3184,0.3197,0.3196,0.3195,0.3194,0.3281,0.3285,0.329,0.334,0,0,0.3304,0.3306,0,0,0,0,0,0,0,0,0.3028,0.3037,0.3115,0.3118,0.312,0.3178,0.3167,0.3236,0.3197,0.3168,0.3194,0.3193,0.3249,0.3256,0.3274,0.3344,0.3347,0.3304,0.3307,0.3309,0.331,0,0,0,0,0,0,0,0.3023,0.3033,0.3133,0.3116,0.3119,0.3124,0.3133,0.318,0.3214,0.3171,0.3172,0.3181,0.3251,0.327,0.3276,0.3349,0.3304,0.3308,0.3311,0.3313,0.3462,0.3463,0,0,0,0,0,0,0.3014,0.3029,0.3131,0.3135,0.307,0.3128,0.3137,0.3161,0.3214,0.322,0.3182,0.3181,0.3262,0.3271,0.3279,0.334,0.3309,0.3313,0.3316,0.3461,0.3462,0.3464,0,0,0,0,0,0,0.3011,0.3023,0.3127,0.3083,0.3096,0.3131,0.3157,0.3163,0.3182,0.3222,0.3228,0.3194,0.3262,0.3273,0.3324,0.3343,0.3315,0.3319,0.3459,0.3461,0.3463,0.3461,0,0,0,0,0,0,0.3007,0.3022,0.304,0.3083,0.3098,0.3169,0.3159,0.3165,0.3189,0.3189,0.3236,0.3242,0.3262,0.3317,0.3328,0.3349,0.3323,0.3458,0.346,0.3462,0.346,0.3463,0.3465,0,0,0,0,0,0.3002,0.3038,0.3041,0.3053,0.3122,0.317,0.3179,0.3199,0.319,0.3209,0.3235,0.3241,0.3339,0.3322,0.3335,0.3357,0.3457,0.3459,0.3462,0.3458,0.3462,0.3465,0,0,0,0,0,0,0.2999,0.3044,0.3048,0.3098,0.313,0.3172,0.3196,0.3202,0.3239,0.3238,0.3263,0.3273,0.3322,0.3345,0.3325,0.3407,0.3397,0.3403,0.339,0.3394,0.3397,0.339,0.3327,0,0,0,0,0,0.3004,0.3037,0.3076,0.3117,0.3132,0.3161,0.3183,0.3195,0.323,0.3244,0.3274,0.3309,0.3347,0.3372,0.341,0.3463,0.3474,0.3485,0.3488,0.349,0.3494,0.3523,0.3528,0.3473,0.3473,0.3473,0,0,0.3015,0.3044,0.3064,0.3117,0.3142,0.3178,0.3173,0.3211,0.3237,0.3251,0.3299,0.3322,0.3363,0.3414,0.3439,0.3435,0.3512,0.3494,0.3495,0.3498,0.3526,0.3531,0.3536,0.3475,0.3474,0.3474,0,0,0.3052,0.3078,0.3113,0.3139,0.3177,0.3196,0.3205,0.3246,0.3261,0.3309,0.3319,0.3353,0.3419,0.3447,0.347,0.3517,0.3523,0.3529,0.3543,0.3571,0.3575,0.3579,0.3594,0.36,0.3533,0.3533,0.3533,0,0.3061,0.3113,0.3132,0.3168,0.3191,0.3203,0.3239,0.3264,0.3314,0.333,0.3325,0.3407,0.3435,0.3493,0.3504,0.3523,0.3533,0.3523,0.3573,0.3577,0.3581,0.3596,0.3602,0.3533,0.3533,0.3533,0.3533,0,0.3122,0.3158,0.3182,0.3227,0.3253,0.329,0.3315,0.3339,0.335,0.337,0.3419,0.3453,0.3497,0.3512,0.3524,0.3571,0.3567,0.3567,0.3558,0.3586,0.36,0.3606,0.3534,0.3534,0.3533,0.3533,0,0,0.3159,0.3212,0.3221,0.3241,0.3283,0.3312,0.335,0.3391,0.3411,0.3445,0.3477,0.3532,0.3531,0.3557,0.3572,0.3597,0.3629,0.3593,0.3595,0.3598,0.3683,0.3681,0.3687,0.3634,0.3636,0.3637,0.3679,0,0.3201,0.3265,0.3282,0.3338,0.3371,0.3382,0.3415,0.3445,0.3465,0.3497,0.352,0.3557,0.3555,0.357,0.3595,0.362,0.3647,0.3618,0.3665,0.3666,0.3652,0.3695,0.3695,0.3732,0.3684,0.3685,0.3686,0,0.3257,0.3289,0.3347,0.3383,0.3398,0.3427,0.3465,0.3495,0.353,0.3543,0.3571,0.3583,0.3624,0.3612,0.3669,0.3648,0.3669,0.3684,0.3686,0.3691,0.3677,0.37,0.3745,0.375,0.3696,0.3695,0.3694,0,0.3276,0.3335,0.3376,0.3393,0.3437,0.3457,0.3477,0.3511,0.3534,0.3568,0.3583,0.3623,0.3644,0.3675,0.3698,0.3688,0.3752,0.3743,0.3764,0.3763,0.3776,0.3774,0.3824,0.3791,0.3791,0.3791,0.3791,0,0.332,0.3354,0.3385,0.341,0.3449,0.347,0.3509,0.353,0.3559,0.359,0.3603,0.3632,0.3661,0.3694,0.3713,0.3755,0.3766,0.3777,0.3782,0.3775,0.3774,0.3789,0.3786,0.3793,0.3792,0.3792,0.3792,0,0.3348,0.337,0.3415,0.3453,0.3463,0.349,0.3523,0.3549,0.3569,0.3607,0.3617,0.3649,0.3688,0.3714,0.3766,0.3778,0.3824,0.3829,0.3811,0.3813,0.3832,0.3829,0.3892,0.3901,0.3863,0.3864,0.3864,0,0.3373,0.3399,0.3439,0.3459,0.3478,0.3511,0.3534,0.3556,0.3579,0.362,0.3641,0.368,0.3713,0.3775,0.3804,0.3843,0.3848,0.3867,0.3854,0.3846,0.3847,0.3844,0.3846,0.3869,0.3869,0.3869,0.387,0,0.3415,0.3424,0.3455,0.349,0.3516,0.3545,0.3575,0.3591,0.3618,0.3644,0.3682,0.3708,0.3758,0.3797,0.3839,0.3861,0.387,0.3873,0.388,0.3873,0.3862,0.3867,0.3816,0.3872,0.3872,0.3871,0.3871,0.3871,0.3442,0.3465,0.3496,0.353,0.3554,0.358,0.3605,0.3627,0.366,0.3701,0.3712,0.3753,0.3787,0.3843,0.3865,0.3898,0.3896,0.3906,0.3909,0.3911,0.391,0.3857,0.3906,0.3906,0.3906,0.3906,0.3906,0,0.3483,0.3503,0.3534,0.3573,0.36,0.3604,0.3637,0.3659,0.3694,0.3724,0.3755,0.3799,0.3837,0.3868,0.3907,0.3927,0.3932,0.3937,0.3935,0.394,0.391,0.3899,0.3932,0.3932,0.3932,0.3932,0.3932,0.3932,0.3508,0.3547,0.356,0.3611,0.3631,0.3669,0.3687,0.3711,0.3735,0.3783,0.3814,0.3833,0.3864,0.3905,0.394,0.3948,0.3961,0.3965,0.3974,0.3945,0.3942,0.3939,0.3929,0.3968,0.3968,0.4001,0.4001,0.4001]},{"header":{"parameterUnit":"m.s-1","parameterCategory":1,"la1":30.2991,"la2":30.254,"lo1":-89.0895,"lo2":-89.0444,"dy":0.0017,"dx":0.0017,"nx":28,"ny":28,"refTime":"2023-09-08T09:00:00:Z","depth":0,"parameterNumber":3,"parameterNumberName":"V-component_of_WINDS"},"data":[0,0,0,0,0,0,0,0,0,0,0,0,0,0,0,0,0,0,0,0,0,0,0,0,0,0,0,0,0,0,0,0,0,0,0,0,0,0,0,0,0,0,0,0,0,0,0,0,0,0,0,0,0,0,0,0,0,0,2.3459,2.3458,0,2.3315,2.3314,2.3312,2.3211,2.321,2.321,2.3209,2.3055,2.3052,2.3048,0,0,0,0,0,0,0,0,0,0,0,0,0,2.3641,2.3638,2.3459,2.3458,2.3456,2.3316,2.3314,2.3312,2.3211,2.321,2.3209,2.3209,2.3056,2.3052,2.3048,0,0,0,0,0,0,0,0,0,0,0,0,0,2.3536,2.3637,2.346,2.3389,2.3381,2.3316,2.3313,2.3311,2.3211,2.321,2.3209,2.3208,2.3057,2.3053,2.3047,2.3039,0,0,2.3032,2.303,0,0,0,0,0,0,0,0,2.3542,2.3529,2.3401,2.3394,2.3385,2.328,2.3321,2.322,2.3212,2.3276,2.3209,2.3208,2.313,2.3119,2.3095,2.3032,2.3025,2.3032,2.3028,2.3026,2.3025,0,0,0,0,0,0,0,2.3549,2.3535,2.3402,2.3399,2.3389,2.3362,2.3346,2.3301,2.3211,2.327,2.3262,2.3247,2.3126,2.31,2.309,2.3023,2.3032,2.3027,2.3024,2.3022,2.2942,2.2943,0,0,0,0,0,0,2.3569,2.3542,2.3407,2.3398,2.3462,2.336,2.3342,2.3315,2.3211,2.3195,2.3248,2.3243,2.3109,2.3096,2.3084,2.3064,2.3026,2.3022,2.3019,2.2941,2.2942,2.2943,0,0,0,0,0,0,2.3573,2.3558,2.3412,2.3468,2.3447,2.3358,2.3328,2.3313,2.3286,2.3195,2.3178,2.3239,2.3108,2.3092,2.3051,2.3058,2.3019,2.3015,2.294,2.2942,2.2943,2.3027,0,0,0,0,0,0,2.3579,2.356,2.3557,2.3468,2.3445,2.3384,2.3329,2.3311,2.3279,2.327,2.3181,2.3165,2.3105,2.3059,2.3046,2.305,2.3011,2.2939,2.2941,2.2942,2.3023,2.3031,2.3038,0,0,0,0,0,2.3585,2.3586,2.3558,2.3542,2.344,2.3384,2.337,2.3303,2.328,2.3275,2.3216,2.3168,2.306,2.3056,2.304,2.3043,2.2938,2.294,2.2942,2.302,2.303,2.3038,0,0,0,0,0,0,2.3676,2.3573,2.354,2.3513,2.3458,2.3367,2.3359,2.3316,2.3265,2.3259,2.3177,2.3157,2.3124,2.308,2.3076,2.3028,2.2993,2.2992,2.3057,2.3066,2.3073,2.3083,2.3006,0,0,0,0,0,2.3693,2.3659,2.357,2.3554,2.3528,2.3449,2.3422,2.3376,2.3315,2.329,2.3228,2.3169,2.3122,2.3092,2.3043,2.3018,2.2994,2.3012,2.3019,2.3026,2.3025,2.3004,2.301,2.295,2.295,2.295,0,0,2.3727,2.3667,2.365,2.357,2.3523,2.3486,2.343,2.3394,2.3365,2.3284,2.3241,2.3194,2.3123,2.3089,2.307,2.305,2.3037,2.3028,2.3034,2.3029,2.3007,2.3013,2.3018,2.2952,2.2951,2.2951,0,0,2.377,2.3723,2.3702,2.3656,2.3585,2.3532,2.3528,2.3444,2.3409,2.3366,2.3303,2.3267,2.3188,2.3138,2.3103,2.3127,2.308,2.3114,2.3151,2.3132,2.3137,2.3141,2.3146,2.3149,2.3114,2.3114,2.3114,0,2.382,2.3765,2.3697,2.3664,2.363,2.3558,2.3535,2.3493,2.3409,2.3385,2.3365,2.3263,2.321,2.3162,2.3168,2.3143,2.3132,2.3122,2.3142,2.3145,2.3147,2.3151,2.3154,2.3118,2.3118,2.3118,2.3117,0,2.3829,2.3791,2.3783,2.3705,2.367,2.3643,2.3569,2.3541,2.3498,2.3447,2.3402,2.3336,2.3271,2.3257,2.3214,2.3202,2.3192,2.3159,2.3121,2.3159,2.3161,2.3162,2.3125,2.3123,2.3122,2.3121,0,0,2.3921,2.3808,2.3805,2.3768,2.3685,2.3653,2.3622,2.3561,2.3537,2.3482,2.3451,2.3386,2.3354,2.3314,2.3265,2.3249,2.3268,2.3216,2.3213,2.3225,2.3246,2.327,2.3273,2.3238,2.3238,2.3238,2.3251,0,2.3948,2.389,2.3828,2.379,2.3752,2.3683,2.3655,2.36,2.3551,2.351,2.3456,2.3409,2.3373,2.3348,2.333,2.327,2.327,2.3268,2.3204,2.3203,2.3221,2.3274,2.3299,2.3315,2.3252,2.3252,2.3252,0,2.3971,2.3921,2.388,2.3798,2.378,2.3756,2.3694,2.3658,2.3592,2.3558,2.3514,2.3462,2.3422,2.3393,2.3335,2.3335,2.3305,2.3272,2.3271,2.3259,2.3227,2.326,2.3318,2.332,2.3253,2.3253,2.3253,0,2.4038,2.396,2.3925,2.3896,2.3801,2.3785,2.3745,2.3679,2.3645,2.3591,2.3568,2.3509,2.3476,2.3431,2.3363,2.3348,2.3311,2.3277,2.3278,2.328,2.327,2.3271,2.3321,2.3258,2.3258,2.3258,2.3258,0,2.4072,2.4049,2.3953,2.3931,2.3902,2.3831,2.3803,2.3756,2.3698,2.3663,2.36,2.3569,2.3483,2.3441,2.3388,2.3346,2.3332,2.3301,2.3286,2.3304,2.3308,2.3281,2.3277,2.3258,2.3258,2.3258,2.3258,0,2.4141,2.4077,2.4033,2.3947,2.3925,2.3907,2.3832,2.3807,2.3756,2.3713,2.3698,2.3617,2.3563,2.3493,2.3417,2.3381,2.3344,2.3324,2.3367,2.3357,2.3362,2.3361,2.3393,2.3392,2.3334,2.3335,2.3335,0,2.4165,2.4145,2.4058,2.4032,2.3994,2.3952,2.3918,2.3847,2.3813,2.3737,2.372,2.3663,2.3612,2.353,2.3462,2.3403,2.3378,2.3393,2.3368,2.3387,2.3374,2.3374,2.337,2.3398,2.3399,2.34,2.3401,0,2.4213,2.4183,2.4137,2.4081,2.4042,2.3994,2.3942,2.3923,2.3841,2.3806,2.3752,2.3713,2.3636,2.3578,2.3511,2.3466,2.3418,2.341,2.3406,2.3423,2.3447,2.343,2.3379,2.3408,2.3408,2.3407,2.3407,2.3406,2.4257,2.4236,2.4171,2.4122,2.4076,2.4029,2.4001,2.3947,2.3901,2.3834,2.3795,2.3741,2.3674,2.3579,2.3536,2.3491,2.3473,2.3469,2.3467,2.3466,2.3471,2.3458,2.3479,2.3479,2.3478,2.3478,2.3478,0,2.4299,2.4254,2.421,2.4141,2.4102,2.4065,2.4005,2.3974,2.3928,2.3872,2.3824,2.376,2.3704,2.3633,2.3571,2.3548,2.3525,2.3534,2.3533,2.3523,2.3492,2.35,2.3554,2.3554,2.3554,2.3554,2.3554,2.3554,2.4316,2.4277,2.4238,2.4175,2.413,2.4078,2.4047,2.4003,2.3957,2.389,2.3843,2.3798,2.3734,2.3667,2.3613,2.3593,2.3572,2.3587,2.356,2.3532,2.3525,2.3519,2.3525,2.3584,2.3584,2.3594,2.3594,2.3594]}]]